Time,TemperatureF,DewpointF,PressureIn,WindDirection,WindDirectionDegrees,WindSpeedMPH,WindSpeedGustMPH,Humidity,HourlyPrecipIn,Conditions,Clouds,dailyrainin,SoftwareType,DateUTC
2013-10-28 00:01:00,35.0,24.0,30.07,West,270,0.0,0.0,64,-0.03,,,0.00,Weather View 32 v70,2013-10-28 04:01:00,
2013-10-28 00:02:00,35.0,24.4,30.07,West,270,0.0,0.0,65,-0.03,,,0.00,Weather View 32 v70,2013-10-28 04:02:00,
2013-10-28 00:07:00,34.0,23.1,30.07,West,270,0.0,0.0,64,-0.03,,,0.00,Weather View 32 v70,2013-10-28 04:07:00,
2013-10-28 00:12:00,34.0,22.0,30.07,West,270,0.0,0.0,61,-0.03,,,0.00,Weather View 32 v70,2013-10-28 04:12:00,
2013-10-28 00:17:00,33.0,22.1,30.07,West,270,0.0,0.0,64,-0.03,,,0.00,Weather View 32 v70,2013-10-28 04:17:00,
2013-10-28 00:22:00,33.0,20.6,30.07,West,270,0.0,0.0,60,-0.03,,,0.00,Weather View 32 v70,2013-10-28 04:22:00,
2013-10-28 00:27:00,33.0,13.4,30.07,West,270,0.0,0.0,44,-0.03,,,0.00,Weather View 32 v70,2013-10-28 04:27:00,
2013-10-28 00:32:00,33.0,13.4,30.08,West,270,0.0,0.0,44,-0.03,,,0.00,Weather View 32 v70,2013-10-28 04:32:00,
2013-10-28 00:37:00,32.0,14.0,30.08,West,270,0.0,0.0,47,-0.03,,,0.00,Weather View 32 v70,2013-10-28 04:37:00,
2013-10-28 00:42:00,32.0,15.0,30.08,West,270,0.0,0.0,49,-0.03,,,0.00,Weather View 32 v70,2013-10-28 04:42:00,
2013-10-28 00:47:00,32.0,17.2,30.08,West,270,0.0,0.0,54,-0.03,,,0.00,Weather View 32 v70,2013-10-28 04:47:00,
2013-10-28 00:52:00,32.0,17.6,30.08,West,270,0.0,0.0,55,-0.03,,,0.00,Weather View 32 v70,2013-10-28 04:52:00,
2013-10-28 00:57:00,31.0,17.5,30.08,West,270,0.0,0.0,57,0.00,,,0.00,Weather View 32 v70,2013-10-28 04:57:00,
2013-10-28 01:02:00,31.0,15.9,30.08,West,270,0.0,0.0,53,0.00,,,0.00,Weather View 32 v70,2013-10-28 05:02:00,
2013-10-28 01:07:00,31.0,9.5,30.08,West,270,0.0,0.0,40,0.00,,,0.00,Weather View 32 v70,2013-10-28 05:07:00,
2013-10-28 01:12:00,31.0,2.4,30.08,West,270,0.0,0.0,29,0.00,,,0.00,Weather View 32 v70,2013-10-28 05:12:00,
2013-10-28 01:17:00,31.0,-32.1,30.08,West,270,0.0,0.0,5,0.00,,,0.00,Weather View 32 v70,2013-10-28 05:17:00,
2013-10-28 01:22:00,31.0,-23.5,30.08,West,270,0.0,0.0,8,0.00,,,0.00,Weather View 32 v70,2013-10-28 05:22:00,
2013-10-28 01:27:00,31.0,-11.3,30.08,West,270,0.0,0.0,15,0.00,,,0.00,Weather View 32 v70,2013-10-28 05:27:00,
2013-10-28 01:32:00,31.0,-3.4,30.08,West,270,0.0,0.0,22,0.00,,,0.00,Weather View 32 v70,2013-10-28 05:32:00,
2013-10-28 01:37:00,31.0,0.1,30.08,West,270,0.0,0.0,26,0.00,,,0.00,Weather View 32 v70,2013-10-28 05:37:00,
2013-10-28 01:42:00,30.0,-2.4,30.08,West,270,0.0,0.0,24,0.00,,,0.00,Weather View 32 v70,2013-10-28 05:42:00,
2013-10-28 01:47:00,30.0,-0.8,30.08,West,270,0.0,0.0,26,0.00,,,0.00,Weather View 32 v70,2013-10-28 05:47:00,
2013-10-28 01:52:00,30.0,-59.6,30.07,West,270,0.0,0.0,1,0.00,,,0.00,Weather View 32 v70,2013-10-28 05:52:00,
2013-10-28 01:57:00,30.0,-36.8,30.07,West,270,0.0,0.0,4,0.00,,,0.00,Weather View 32 v70,2013-10-28 05:57:00,
2013-10-28 02:02:00,30.0,-26.7,30.08,West,270,0.0,0.0,7,0.00,,,0.00,Weather View 32 v70,2013-10-28 06:02:00,
2013-10-28 02:07:00,30.0,-22.0,30.08,West,270,0.0,0.0,9,0.00,,,0.00,Weather View 32 v70,2013-10-28 06:07:00,
2013-10-28 02:12:00,30.0,-59.6,30.08,West,270,0.0,0.0,1,0.00,,,0.00,Weather View 32 v70,2013-10-28 06:12:00,
2013-10-28 02:17:00,30.0,-59.6,30.08,West,270,0.0,0.0,1,0.00,,,0.00,Weather View 32 v70,2013-10-28 06:17:00,
2013-10-28 02:22:00,30.0,-41.8,30.08,West,270,0.0,0.0,3,0.00,,,0.00,Weather View 32 v70,2013-10-28 06:22:00,
2013-10-28 02:27:00,30.0,-32.9,30.08,West,270,0.0,0.0,5,0.00,,,0.00,Weather View 32 v70,2013-10-28 06:27:00,
2013-10-28 02:32:00,29.0,-60.2,30.08,West,270,0.0,0.0,1,0.00,,,0.00,Weather View 32 v70,2013-10-28 06:32:00,
2013-10-28 02:37:00,29.0,-42.5,30.08,West,270,0.0,0.0,3,0.00,,,0.00,Weather View 32 v70,2013-10-28 06:37:00,
2013-10-28 02:42:00,29.0,-60.2,30.08,West,270,0.0,0.0,1,0.00,,,0.00,Weather View 32 v70,2013-10-28 06:42:00,
2013-10-28 02:47:00,29.0,-60.2,30.08,West,270,0.0,0.0,1,0.00,,,0.00,Weather View 32 v70,2013-10-28 06:47:00,
2013-10-28 02:52:00,29.0,-60.2,30.08,West,270,0.0,0.0,1,0.00,,,0.00,Weather View 32 v70,2013-10-28 06:52:00,
2013-10-28 02:57:00,29.0,-60.2,30.07,West,270,0.0,0.0,1,0.00,,,0.00,Weather View 32 v70,2013-10-28 06:57:00,
2013-10-28 03:02:00,29.0,-60.2,30.07,West,270,0.0,0.0,1,0.00,,,0.00,Weather View 32 v70,2013-10-28 07:02:00,
2013-10-28 03:07:00,29.0,-60.2,30.07,West,270,0.0,0.0,1,0.00,,,0.00,Weather View 32 v70,2013-10-28 07:07:00,
2013-10-28 03:13:00,29.0,-60.2,30.07,West,270,0.0,0.0,1,0.00,,,0.00,Weather View 32 v70,2013-10-28 07:13:00,
2013-10-28 03:18:00,29.0,-60.2,30.07,West,270,0.0,0.0,1,0.00,,,0.00,Weather View 32 v70,2013-10-28 07:18:00,
2013-10-28 03:23:00,29.0,-60.2,30.07,West,270,0.0,0.0,1,0.01,,,0.00,Weather View 32 v70,2013-10-28 07:23:00,
2013-10-28 03:28:00,29.0,-60.2,30.07,West,270,0.0,0.0,1,0.00,,,0.00,Weather View 32 v70,2013-10-28 07:28:00,
2013-10-28 03:33:00,28.0,-60.8,30.07,West,270,0.0,0.0,1,0.00,,,0.00,Weather View 32 v70,2013-10-28 07:33:00,
2013-10-28 03:38:00,28.0,-60.8,30.07,West,270,0.0,0.0,1,0.00,,,0.00,Weather View 32 v70,2013-10-28 07:38:00,
2013-10-28 03:43:00,28.0,-60.8,30.07,West,270,0.0,0.0,1,0.00,,,0.00,Weather View 32 v70,2013-10-28 07:43:00,
2013-10-28 03:48:00,28.0,-60.8,30.07,West,270,0.0,0.0,1,0.00,,,0.00,Weather View 32 v70,2013-10-28 07:48:00,
2013-10-28 03:53:00,28.0,-60.8,30.07,West,270,0.0,0.0,1,0.00,,,0.00,Weather View 32 v70,2013-10-28 07:53:00,
2013-10-28 03:58:00,28.0,-60.8,30.07,West,270,0.0,0.0,1,0.00,,,0.00,Weather View 32 v70,2013-10-28 07:58:00,
2013-10-28 04:03:00,28.0,-60.8,30.07,West,270,0.0,0.0,1,0.00,,,0.00,Weather View 32 v70,2013-10-28 08:03:00,
2013-10-28 04:08:00,28.0,-60.8,30.07,West,270,0.0,0.0,1,0.00,,,0.00,Weather View 32 v70,2013-10-28 08:08:00,
2013-10-28 04:13:00,28.0,-60.8,30.07,West,270,0.0,0.0,1,0.00,,,0.00,Weather View 32 v70,2013-10-28 08:13:00,
2013-10-28 04:18:00,28.0,-60.8,30.07,West,270,0.0,0.0,1,0.00,,,0.00,Weather View 32 v70,2013-10-28 08:18:00,
2013-10-28 04:23:00,28.0,-60.8,30.08,West,270,0.0,0.0,1,0.00,,,0.00,Weather View 32 v70,2013-10-28 08:23:00,
2013-10-28 04:28:00,27.0,-61.4,30.08,West,270,0.0,0.0,1,0.00,,,0.00,Weather View 32 v70,2013-10-28 08:28:00,
2013-10-28 04:33:00,27.0,-61.4,30.08,West,270,0.0,0.0,1,0.00,,,0.00,Weather View 32 v70,2013-10-28 08:33:00,
2013-10-28 04:38:00,28.0,-60.8,30.08,West,270,0.0,0.0,1,0.00,,,0.00,Weather View 32 v70,2013-10-28 08:38:00,
2013-10-28 04:43:00,28.0,-60.8,30.08,West,270,0.0,0.0,1,0.00,,,0.00,Weather View 32 v70,2013-10-28 08:43:00,
2013-10-28 04:48:00,28.0,-60.8,30.08,West,270,0.0,0.0,1,0.00,,,0.00,Weather View 32 v70,2013-10-28 08:48:00,
2013-10-28 04:53:00,28.0,-60.8,30.09,West,270,0.0,0.0,1,0.00,,,0.00,Weather View 32 v70,2013-10-28 08:53:00,
2013-10-28 04:58:00,28.0,-60.8,30.08,West,270,0.0,0.0,1,0.00,,,0.00,Weather View 32 v70,2013-10-28 08:58:00,
2013-10-28 05:03:00,28.0,-60.8,30.09,West,270,0.0,0.0,1,0.00,,,0.00,Weather View 32 v70,2013-10-28 09:03:00,
2013-10-28 05:08:00,28.0,-60.8,30.09,West,270,0.0,0.0,1,0.00,,,0.00,Weather View 32 v70,2013-10-28 09:08:00,
2013-10-28 05:13:00,27.0,-61.4,30.09,West,270,0.0,0.0,1,0.00,,,0.00,Weather View 32 v70,2013-10-28 09:13:00,
2013-10-28 05:18:00,27.0,-61.4,30.09,West,270,0.0,0.0,1,0.00,,,0.00,Weather View 32 v70,2013-10-28 09:18:00,
2013-10-28 05:23:00,27.0,-61.4,30.09,West,270,0.0,0.0,1,0.00,,,0.00,Weather View 32 v70,2013-10-28 09:23:00,
2013-10-28 05:28:00,27.0,-61.4,30.09,West,270,0.0,0.0,1,0.00,,,0.00,Weather View 32 v70,2013-10-28 09:28:00,
2013-10-28 05:33:00,27.0,-61.4,30.08,West,270,0.0,0.0,1,0.00,,,0.00,Weather View 32 v70,2013-10-28 09:33:00,
2013-10-28 05:38:00,27.0,-61.4,30.09,West,270,0.0,0.0,1,0.00,,,0.00,Weather View 32 v70,2013-10-28 09:38:00,
2013-10-28 05:43:00,27.0,-61.4,30.09,West,270,0.0,0.0,1,0.00,,,0.00,Weather View 32 v70,2013-10-28 09:43:00,
2013-10-28 05:48:00,27.0,-61.4,30.08,West,270,0.0,0.0,1,0.00,,,0.00,Weather View 32 v70,2013-10-28 09:48:00,
2013-10-28 05:53:00,27.0,-61.4,30.08,West,270,0.0,0.0,1,0.00,,,0.00,Weather View 32 v70,2013-10-28 09:53:00,
2013-10-28 05:58:00,27.0,-61.4,30.08,West,270,0.0,0.0,1,0.00,,,0.00,Weather View 32 v70,2013-10-28 09:58:00,
2013-10-28 06:03:00,27.0,-61.4,30.08,West,270,0.0,0.0,1,0.00,,,0.00,Weather View 32 v70,2013-10-28 10:03:00,
2013-10-28 06:08:00,27.0,-61.4,30.08,West,270,0.0,0.0,1,0.00,,,0.00,Weather View 32 v70,2013-10-28 10:08:00,
2013-10-28 06:13:00,27.0,-61.4,30.08,West,270,0.0,0.0,1,0.00,,,0.00,Weather View 32 v70,2013-10-28 10:13:00,
2013-10-28 06:18:00,27.0,-61.4,30.08,West,270,0.0,0.0,1,0.00,,,0.00,Weather View 32 v70,2013-10-28 10:18:00,
2013-10-28 06:23:00,27.0,-61.4,30.08,West,270,0.0,0.0,1,0.00,,,0.00,Weather View 32 v70,2013-10-28 10:23:00,
2013-10-28 06:28:00,27.0,-61.4,30.08,West,270,0.0,0.0,1,0.00,,,0.00,Weather View 32 v70,2013-10-28 10:28:00,
2013-10-28 06:33:00,27.0,-61.4,30.08,West,270,0.0,0.0,1,0.00,,,0.00,Weather View 32 v70,2013-10-28 10:33:00,
2013-10-28 06:38:00,26.0,-62.1,30.08,West,270,0.0,0.0,1,0.00,,,0.00,Weather View 32 v70,2013-10-28 10:38:00,
2013-10-28 06:43:00,26.0,-62.1,30.08,West,270,0.0,0.0,1,0.00,,,0.00,Weather View 32 v70,2013-10-28 10:43:00,
2013-10-28 06:48:00,26.0,-62.1,30.08,West,270,0.0,0.0,1,0.00,,,0.00,Weather View 32 v70,2013-10-28 10:48:00,
2013-10-28 06:53:00,26.0,-62.1,30.09,West,270,0.0,0.0,1,0.00,,,0.00,Weather View 32 v70,2013-10-28 10:53:00,
2013-10-28 06:58:00,27.0,-61.4,30.09,West,270,0.0,0.0,1,0.00,,,0.00,Weather View 32 v70,2013-10-28 10:58:00,
2013-10-28 07:03:00,27.0,-61.4,30.09,West,270,0.0,0.0,1,0.00,,,0.00,Weather View 32 v70,2013-10-28 11:03:00,
2013-10-28 07:08:00,27.0,-61.4,30.09,West,270,0.0,0.0,1,0.00,,,0.00,Weather View 32 v70,2013-10-28 11:08:00,
2013-10-28 07:13:00,27.0,-61.4,30.09,West,270,0.0,0.0,1,0.00,,,0.00,Weather View 32 v70,2013-10-28 11:13:00,
2013-10-28 07:18:00,27.0,-61.4,30.09,West,270,0.0,0.0,1,0.00,,,0.00,Weather View 32 v70,2013-10-28 11:18:00,
2013-10-28 07:23:00,27.0,-61.4,30.09,West,270,0.0,0.0,1,0.00,,,0.00,Weather View 32 v70,2013-10-28 11:23:00,
2013-10-28 07:28:00,27.0,-61.4,30.09,West,270,0.0,0.0,1,0.00,,,0.00,Weather View 32 v70,2013-10-28 11:28:00,
2013-10-28 07:33:00,27.0,-61.4,30.09,West,270,0.0,0.0,1,0.00,,,0.00,Weather View 32 v70,2013-10-28 11:33:00,
2013-10-28 07:38:00,27.0,-61.4,30.09,West,270,0.0,0.0,1,0.00,,,0.00,Weather View 32 v70,2013-10-28 11:38:00,
2013-10-28 07:43:00,27.0,-61.4,30.10,West,270,0.0,0.0,1,0.00,,,0.00,Weather View 32 v70,2013-10-28 11:43:00,
2013-10-28 07:48:00,27.0,-61.4,30.10,West,270,0.0,0.0,1,0.00,,,0.00,Weather View 32 v70,2013-10-28 11:48:00,
2013-10-28 07:53:00,27.0,-61.4,30.10,West,270,0.0,0.0,1,0.00,,,0.00,Weather View 32 v70,2013-10-28 11:53:00,
2013-10-28 07:58:00,28.0,-60.8,30.10,West,270,0.0,0.0,1,0.00,,,0.00,Weather View 32 v70,2013-10-28 11:58:00,
2013-10-28 08:03:00,28.0,-60.8,30.10,West,270,0.0,0.0,1,0.00,,,0.00,Weather View 32 v70,2013-10-28 12:03:00,
2013-10-28 08:08:00,29.0,-60.2,30.11,West,270,0.0,0.0,1,0.00,,,0.00,Weather View 32 v70,2013-10-28 12:08:00,
2013-10-28 08:13:00,30.0,-59.6,30.11,West,270,0.0,0.0,1,0.00,,,0.00,Weather View 32 v70,2013-10-28 12:13:00,
2013-10-28 08:18:00,30.0,-59.6,30.11,West,270,0.0,0.0,1,0.00,,,0.00,Weather View 32 v70,2013-10-28 12:18:00,
2013-10-28 08:23:00,30.0,-59.6,30.12,West,270,0.0,0.0,1,0.00,,,0.00,Weather View 32 v70,2013-10-28 12:23:00,
2013-10-28 08:28:00,31.0,-58.9,30.12,West,270,0.0,0.0,1,0.00,,,0.00,Weather View 32 v70,2013-10-28 12:28:00,
2013-10-28 08:33:00,32.0,-58.3,30.12,West,270,0.0,0.0,1,0.00,,,0.00,Weather View 32 v70,2013-10-28 12:33:00,
2013-10-28 08:38:00,34.0,-57.1,30.13,West,270,0.0,0.0,1,0.00,,,0.00,Weather View 32 v70,2013-10-28 12:38:00,
2013-10-28 08:43:00,36.0,-55.8,30.13,West,270,0.0,0.0,1,0.00,,,0.00,Weather View 32 v70,2013-10-28 12:43:00,
2013-10-28 08:48:00,38.0,-54.6,30.14,West,270,0.0,0.0,1,0.00,,,0.00,Weather View 32 v70,2013-10-28 12:48:00,
2013-10-28 08:53:00,39.0,-54.0,30.15,ESE,112,1.0,3.0,1,0.00,,,0.00,Weather View 32 v70,2013-10-28 12:53:00,
2013-10-28 08:58:00,41.0,-52.7,30.15,ESE,112,0.0,3.0,1,0.00,,,0.00,Weather View 32 v70,2013-10-28 12:58:00,
2013-10-28 09:03:00,43.0,-51.5,30.16,ESE,112,0.0,3.0,1,0.00,,,0.00,Weather View 32 v70,2013-10-28 13:03:00,
2013-10-28 09:08:00,44.0,19.4,30.16,South,180,1.0,3.0,37,0.00,,,0.00,Weather View 32 v70,2013-10-28 13:08:00,
2013-10-28 09:13:00,45.0,34.3,30.17,WNW,292,5.0,5.0,66,0.00,,,0.00,Weather View 32 v70,2013-10-28 13:13:00,
2013-10-28 09:18:00,46.0,33.7,30.17,East,90,2.0,5.0,62,0.00,,,0.00,Weather View 32 v70,2013-10-28 13:18:00,
2013-10-28 09:23:00,47.0,35.0,30.18,SW,225,0.0,5.0,63,0.00,,,0.00,Weather View 32 v70,2013-10-28 13:23:00,
2013-10-28 09:28:00,48.0,40.4,30.18,East,90,1.0,6.0,75,0.00,,,0.00,Weather View 32 v70,2013-10-28 13:28:00,
2013-10-28 09:33:00,48.0,36.0,30.18,WNW,292,0.0,6.0,63,0.00,,,0.00,Weather View 32 v70,2013-10-28 13:33:00,
2013-10-28 09:38:00,48.0,39.0,30.19,WSW,247,0.0,6.0,71,0.00,,,0.00,Weather View 32 v70,2013-10-28 13:38:00,
2013-10-28 09:43:00,50.0,42.4,30.19,SW,225,2.0,6.0,75,0.00,,,0.00,Weather View 32 v70,2013-10-28 13:43:00,
2013-10-28 09:48:00,51.0,43.3,30.19,WNW,292,0.0,6.0,75,0.00,,,0.00,Weather View 32 v70,2013-10-28 13:48:00,
2013-10-28 09:53:00,51.0,40.8,30.19,WNW,292,0.0,6.0,68,0.00,,,0.00,Weather View 32 v70,2013-10-28 13:53:00,
2013-10-28 09:58:00,51.0,40.4,30.19,SSE,157,4.0,6.0,67,0.00,,,0.00,Weather View 32 v70,2013-10-28 13:58:00,
2013-10-28 10:03:00,52.0,41.0,30.19,SSW,202,1.0,6.0,66,0.00,,,0.00,Weather View 32 v70,2013-10-28 14:03:00,
2013-10-28 10:08:00,52.0,38.1,30.19,ESE,112,0.0,7.0,59,0.00,,,0.00,Weather View 32 v70,2013-10-28 14:08:00,
2013-10-28 10:13:00,53.0,36.8,30.19,SSW,202,4.0,7.0,54,0.00,,,0.00,Weather View 32 v70,2013-10-28 14:13:00,
2013-10-28 10:18:00,53.0,37.2,30.19,WSW,247,2.0,7.0,55,0.00,,,0.00,Weather View 32 v70,2013-10-28 14:18:00,
2013-10-28 10:23:00,53.0,36.8,30.19,South,180,2.0,8.0,54,0.00,,,0.00,Weather View 32 v70,2013-10-28 14:23:00,
2013-10-28 10:28:00,53.0,38.6,30.19,South,180,1.0,8.0,58,0.00,,,0.00,Weather View 32 v70,2013-10-28 14:28:00,
2013-10-28 10:33:00,54.0,35.7,30.19,West,270,3.0,8.0,50,0.00,,,0.00,Weather View 32 v70,2013-10-28 14:33:00,
2013-10-28 10:38:00,54.0,36.2,30.19,SE,135,0.0,8.0,51,0.00,,,0.00,Weather View 32 v70,2013-10-28 14:38:00,
2013-10-28 10:43:00,54.0,35.2,30.19,West,270,2.0,8.0,49,0.00,,,0.00,Weather View 32 v70,2013-10-28 14:43:00,
2013-10-28 10:48:00,55.0,36.2,30.19,ESE,112,0.0,8.0,49,0.00,,,0.00,Weather View 32 v70,2013-10-28 14:48:00,
2013-10-28 10:53:00,55.0,34.6,30.19,WNW,292,2.0,8.0,46,0.00,,,0.00,Weather View 32 v70,2013-10-28 14:53:00,
2013-10-28 10:58:00,56.0,37.1,30.19,WNW,292,1.0,8.0,49,0.00,,,0.00,Weather View 32 v70,2013-10-28 14:58:00,
2013-10-28 11:03:00,56.0,36.0,30.19,WSW,247,1.0,8.0,47,0.00,,,0.00,Weather View 32 v70,2013-10-28 15:03:00,
2013-10-28 11:08:00,56.0,36.5,30.19,SSE,157,1.0,8.0,48,0.00,,,0.00,Weather View 32 v70,2013-10-28 15:08:00,
2013-10-28 11:13:00,56.0,34.9,30.19,SW,225,2.0,8.0,45,0.00,,,0.00,Weather View 32 v70,2013-10-28 15:13:00,
2013-10-28 11:18:00,57.0,36.4,30.19,NW,315,4.0,8.0,46,0.00,,,0.00,Weather View 32 v70,2013-10-28 15:18:00,
2013-10-28 11:23:00,57.0,35.3,30.19,SW,225,3.0,9.0,44,0.00,,,0.00,Weather View 32 v70,2013-10-28 15:23:00,
2013-10-28 11:28:00,57.0,36.4,30.19,SSE,157,0.0,9.0,46,0.00,,,0.00,Weather View 32 v70,2013-10-28 15:28:00,
2013-10-28 11:33:00,57.0,34.7,30.19,SSE,157,5.0,9.0,43,0.00,,,0.00,Weather View 32 v70,2013-10-28 15:33:00,
2013-10-28 11:38:00,58.0,36.7,30.18,West,270,5.0,9.0,45,0.00,,,0.00,Weather View 32 v70,2013-10-28 15:38:00,
2013-10-28 11:43:00,58.0,34.4,30.19,SSE,157,0.0,9.0,41,0.00,,,0.00,Weather View 32 v70,2013-10-28 15:43:00,
2013-10-28 11:48:00,59.0,36.5,30.19,SSW,202,2.0,9.0,43,0.00,,,0.00,Weather View 32 v70,2013-10-28 15:48:00,
2013-10-28 11:53:00,59.0,37.1,30.18,SSW,202,1.0,9.0,44,0.00,,,0.00,Weather View 32 v70,2013-10-28 15:53:00,
2013-10-28 11:58:00,59.0,35.3,30.18,West,270,5.0,9.0,41,0.00,,,0.00,Weather View 32 v70,2013-10-28 15:58:00,
2013-10-28 12:03:00,59.0,37.6,30.18,South,180,2.0,9.0,45,0.00,,,0.00,Weather View 32 v70,2013-10-28 16:03:00,
2013-10-28 12:08:00,59.0,35.3,30.17,West,270,5.0,9.0,41,0.00,,,0.00,Weather View 32 v70,2013-10-28 16:08:00,
2013-10-28 12:13:00,59.0,37.1,30.17,South,180,2.0,10.0,44,0.00,,,0.00,Weather View 32 v70,2013-10-28 16:13:00,
2013-10-28 12:18:00,60.0,35.6,30.17,West,270,6.0,10.0,40,0.00,,,0.00,Weather View 32 v70,2013-10-28 16:18:00,
2013-10-28 12:23:00,59.0,35.3,30.17,West,270,1.0,10.0,41,0.00,,,0.00,Weather View 32 v70,2013-10-28 16:23:00,
2013-10-28 12:28:00,59.0,35.3,30.17,SSW,202,2.0,10.0,41,0.00,,,0.00,Weather View 32 v70,2013-10-28 16:28:00,
2013-10-28 12:33:00,60.0,37.4,30.17,WNW,292,1.0,10.0,43,0.00,,,0.00,Weather View 32 v70,2013-10-28 16:33:00,
2013-10-28 12:38:00,60.0,36.2,30.17,West,270,5.0,10.0,41,0.00,,,0.00,Weather View 32 v70,2013-10-28 16:38:00,
2013-10-28 12:43:00,60.0,35.6,30.17,NNW,337,9.0,10.0,40,0.00,,,0.00,Weather View 32 v70,2013-10-28 16:43:00,
2013-10-28 12:48:00,59.0,34.7,30.17,West,270,5.0,11.0,40,0.00,,,0.00,Weather View 32 v70,2013-10-28 16:48:00,
2013-10-28 12:53:00,60.0,35.6,30.17,SSW,202,6.0,11.0,40,0.00,,,0.00,Weather View 32 v70,2013-10-28 16:53:00,
2013-10-28 12:58:00,60.0,36.2,30.17,WNW,292,8.0,11.0,41,0.00,,,0.00,Weather View 32 v70,2013-10-28 16:58:00,
2013-10-28 13:03:00,60.0,34.9,30.17,South,180,2.0,11.0,39,0.00,,,0.00,Weather View 32 v70,2013-10-28 17:03:00,
2013-10-28 13:08:00,60.0,35.6,30.17,West,270,6.0,11.0,40,0.00,,,0.00,Weather View 32 v70,2013-10-28 17:08:00,
2013-10-28 13:14:00,60.0,34.9,30.17,NW,315,2.0,11.0,39,0.00,,,0.00,Weather View 32 v70,2013-10-28 17:14:00,
2013-10-28 13:19:00,60.0,35.6,30.17,NNE,22,3.0,11.0,40,0.00,,,0.00,Weather View 32 v70,2013-10-28 17:19:00,
2013-10-28 13:24:00,60.0,36.8,30.17,NNW,337,1.0,11.0,42,0.00,,,0.00,Weather View 32 v70,2013-10-28 17:24:00,
2013-10-28 13:29:00,60.0,35.6,30.18,WNW,292,3.0,11.0,40,0.03,,,0.00,Weather View 32 v70,2013-10-28 17:29:00,
2013-10-28 13:34:00,59.0,35.9,30.17,West,270,2.0,11.0,42,0.00,,,0.00,Weather View 32 v70,2013-10-28 17:34:00,
2013-10-28 13:39:00,58.0,35.0,30.17,WNW,292,4.0,11.0,42,0.00,,,0.00,Weather View 32 v70,2013-10-28 17:39:00,
2013-10-28 13:44:00,58.0,36.2,30.17,NNE,22,1.0,11.0,44,0.00,,,0.00,Weather View 32 v70,2013-10-28 17:44:00,
2013-10-28 13:49:00,58.0,35.6,30.17,SE,135,6.0,11.0,43,0.00,,,0.00,Weather View 32 v70,2013-10-28 17:49:00,
2013-10-28 13:54:00,57.0,35.3,30.17,WSW,247,1.0,11.0,44,0.00,,,0.00,Weather View 32 v70,2013-10-28 17:54:00,
2013-10-28 13:59:00,57.0,35.3,30.17,WNW,292,4.0,11.0,44,0.00,,,0.00,Weather View 32 v70,2013-10-28 17:59:00,
2013-10-28 14:04:00,57.0,35.8,30.17,West,270,6.0,11.0,45,0.00,,,0.00,Weather View 32 v70,2013-10-28 18:04:00,
2013-10-28 14:09:00,57.0,36.4,30.17,ENE,67,6.0,11.0,46,0.00,,,0.00,Weather View 32 v70,2013-10-28 18:09:00,
2013-10-28 14:14:00,57.0,36.9,30.17,SSW,202,0.0,11.0,47,0.00,,,0.00,Weather View 32 v70,2013-10-28 18:14:00,
2013-10-28 14:19:00,57.0,36.4,30.18,WNW,292,6.0,11.0,46,0.00,,,0.00,Weather View 32 v70,2013-10-28 18:19:00,
2013-10-28 14:24:00,57.0,35.8,30.18,WNW,292,5.0,11.0,45,0.00,,,0.00,Weather View 32 v70,2013-10-28 18:24:00,
2013-10-28 14:29:00,58.0,36.2,30.18,West,270,8.0,11.0,44,0.00,,,0.00,Weather View 32 v70,2013-10-28 18:29:00,
2013-10-28 14:34:00,58.0,36.7,30.17,WSW,247,4.0,12.0,45,0.00,,,0.00,Weather View 32 v70,2013-10-28 18:34:00,
2013-10-28 14:39:00,58.0,36.2,30.17,WNW,292,2.0,12.0,44,0.00,,,0.00,Weather View 32 v70,2013-10-28 18:39:00,
2013-10-28 14:44:00,57.0,35.3,30.18,SSW,202,5.0,12.0,44,0.00,,,0.00,Weather View 32 v70,2013-10-28 18:44:00,
2013-10-28 14:49:00,57.0,35.8,30.18,South,180,6.0,14.0,45,0.00,,,0.00,Weather View 32 v70,2013-10-28 18:49:00,
2013-10-28 14:54:00,57.0,36.4,30.18,NE,45,6.0,14.0,46,0.00,,,0.00,Weather View 32 v70,2013-10-28 18:54:00,
2013-10-28 14:59:00,58.0,37.3,30.18,West,270,2.0,14.0,46,0.00,,,0.00,Weather View 32 v70,2013-10-28 18:59:00,
2013-10-28 15:04:00,58.0,36.2,30.18,WSW,247,2.0,14.0,44,0.00,,,0.00,Weather View 32 v70,2013-10-28 19:04:00,
2013-10-28 15:09:00,58.0,36.2,30.19,SE,135,2.0,14.0,44,0.00,,,0.00,Weather View 32 v70,2013-10-28 19:09:00,
2013-10-28 15:14:00,58.0,35.6,30.19,WNW,292,3.0,14.0,43,0.00,,,0.00,Weather View 32 v70,2013-10-28 19:14:00,
2013-10-28 15:19:00,58.0,34.4,30.19,SSW,202,1.0,14.0,41,0.00,,,0.00,Weather View 32 v70,2013-10-28 19:19:00,
2013-10-28 15:24:00,58.0,34.4,30.19,West,270,1.0,14.0,41,0.00,,,0.00,Weather View 32 v70,2013-10-28 19:24:00,
2013-10-28 15:29:00,57.0,32.9,30.19,WNW,292,1.0,14.0,40,0.00,,,0.00,Weather View 32 v70,2013-10-28 19:29:00,
2013-10-28 15:34:00,57.0,32.9,30.20,SE,135,1.0,14.0,40,0.00,,,0.00,Weather View 32 v70,2013-10-28 19:34:00,
2013-10-28 15:39:00,56.0,33.2,30.20,WNW,292,1.0,14.0,42,0.00,,,0.00,Weather View 32 v70,2013-10-28 19:39:00,
2013-10-28 15:44:00,56.0,33.8,30.20,SSE,157,3.0,14.0,43,0.00,,,0.00,Weather View 32 v70,2013-10-28 19:44:00,
2013-10-28 15:49:00,56.0,33.8,30.20,West,270,5.0,14.0,43,0.00,,,0.00,Weather View 32 v70,2013-10-28 19:49:00,
2013-10-28 15:54:00,56.0,33.8,30.20,East,90,0.0,12.0,43,0.00,,,0.00,Weather View 32 v70,2013-10-28 19:54:00,
2013-10-28 15:59:00,56.0,32.6,30.20,ENE,67,5.0,12.0,41,0.00,,,0.00,Weather View 32 v70,2013-10-28 19:59:00,
2013-10-28 16:04:00,56.0,32.6,30.20,West,270,5.0,12.0,41,0.00,,,0.00,Weather View 32 v70,2013-10-28 20:04:00,
2013-10-28 16:09:00,56.0,31.3,30.21,NW,315,3.0,12.0,39,0.00,,,0.00,Weather View 32 v70,2013-10-28 20:09:00,
2013-10-28 16:14:00,56.0,32.0,30.21,West,270,3.0,12.0,40,0.00,,,0.00,Weather View 32 v70,2013-10-28 20:14:00,
2013-10-28 16:19:00,56.0,32.6,30.21,WNW,292,4.0,12.0,41,0.00,,,0.00,Weather View 32 v70,2013-10-28 20:19:00,
2013-10-28 16:24:00,56.0,32.6,30.21,WSW,247,0.0,12.0,41,0.00,,,0.00,Weather View 32 v70,2013-10-28 20:24:00,
2013-10-28 16:29:00,55.0,31.7,30.21,West,270,7.0,12.0,41,0.00,,,0.00,Weather View 32 v70,2013-10-28 20:29:00,
2013-10-28 16:34:00,55.0,31.7,30.21,West,270,1.0,12.0,41,0.00,,,0.00,Weather View 32 v70,2013-10-28 20:34:00,
2013-10-28 16:39:00,55.0,32.3,30.21,SW,225,1.0,11.0,42,0.00,,,0.00,Weather View 32 v70,2013-10-28 20:39:00,
2013-10-28 16:44:00,55.0,32.3,30.21,SE,135,3.0,11.0,42,0.00,,,0.00,Weather View 32 v70,2013-10-28 20:44:00,
2013-10-28 16:49:00,54.0,32.0,30.21,NE,45,0.0,11.0,43,0.00,,,0.00,Weather View 32 v70,2013-10-28 20:49:00,
2013-10-28 16:54:00,54.0,32.5,30.21,West,270,0.0,11.0,44,0.00,,,0.00,Weather View 32 v70,2013-10-28 20:54:00,
2013-10-28 16:59:00,54.0,33.6,30.21,NNE,22,0.0,11.0,46,0.00,,,0.00,Weather View 32 v70,2013-10-28 20:59:00,
2013-10-28 17:04:00,53.0,31.6,30.22,WNW,292,3.0,11.0,44,0.00,,,0.00,Weather View 32 v70,2013-10-28 21:04:00,
2013-10-28 17:09:00,54.0,32.5,30.22,West,270,1.0,11.0,44,0.00,,,0.00,Weather View 32 v70,2013-10-28 21:09:00,
2013-10-28 17:14:00,54.0,33.1,30.22,NW,315,0.0,11.0,45,0.00,,,0.00,Weather View 32 v70,2013-10-28 21:14:00,
2013-10-28 17:19:00,53.0,32.7,30.22,NE,45,0.0,11.0,46,0.00,,,0.00,Weather View 32 v70,2013-10-28 21:19:00,
2013-10-28 17:24:00,53.0,33.8,30.23,ENE,67,2.0,11.0,48,0.00,,,0.00,Weather View 32 v70,2013-10-28 21:24:00,
2013-10-28 17:29:00,53.0,34.3,30.24,NE,45,0.0,11.0,49,0.00,,,0.00,Weather View 32 v70,2013-10-28 21:29:00,
2013-10-28 17:34:00,53.0,35.3,30.24,NE,45,0.0,11.0,51,0.00,,,0.00,Weather View 32 v70,2013-10-28 21:34:00,
2013-10-28 17:39:00,52.0,35.4,30.24,SE,135,1.0,11.0,53,0.00,,,0.00,Weather View 32 v70,2013-10-28 21:39:00,
2013-10-28 17:44:00,52.0,35.8,30.24,NE,45,0.0,9.0,54,0.00,,,0.00,Weather View 32 v70,2013-10-28 21:44:00,
2013-10-28 17:50:00,51.0,34.9,30.25,NE,45,0.0,9.0,54,0.00,,,0.00,Weather View 32 v70,2013-10-28 21:50:00,
2013-10-28 17:55:00,51.0,35.8,30.25,NE,45,0.0,9.0,56,0.00,,,0.00,Weather View 32 v70,2013-10-28 21:55:00,
2013-10-28 18:00:00,51.0,35.4,30.25,NNE,22,0.0,9.0,55,0.00,,,0.00,Weather View 32 v70,2013-10-28 22:00:00,
2013-10-28 18:05:00,50.0,35.3,30.25,ENE,67,2.0,9.0,57,0.00,,,0.00,Weather View 32 v70,2013-10-28 22:05:00,
2013-10-28 18:10:00,50.0,35.8,30.26,NE,45,2.0,9.0,58,0.00,,,0.00,Weather View 32 v70,2013-10-28 22:10:00,
2013-10-28 18:15:00,50.0,35.3,30.26,NNE,22,0.0,9.0,57,0.00,,,0.00,Weather View 32 v70,2013-10-28 22:15:00,
2013-10-28 18:20:00,50.0,35.3,30.27,NE,45,0.0,9.0,57,0.00,,,0.00,Weather View 32 v70,2013-10-28 22:20:00,
2013-10-28 18:25:00,50.0,35.3,30.27,ENE,67,3.0,7.0,57,0.00,,,0.00,Weather View 32 v70,2013-10-28 22:25:00,
2013-10-28 18:30:00,50.0,36.6,30.27,ENE,67,4.0,7.0,60,0.00,,,0.00,Weather View 32 v70,2013-10-28 22:30:00,
2013-10-28 18:35:00,50.0,38.3,30.28,NE,45,4.0,10.0,64,0.00,,,0.00,Weather View 32 v70,2013-10-28 22:35:00,
2013-10-28 18:40:00,49.0,38.5,30.28,ENE,67,2.0,10.0,67,0.00,,,0.00,Weather View 32 v70,2013-10-28 22:40:00,
2013-10-28 18:45:00,49.0,38.5,30.29,NE,45,3.0,10.0,67,0.00,,,0.00,Weather View 32 v70,2013-10-28 22:45:00,
2013-10-28 18:50:00,48.0,37.9,30.29,NE,45,4.0,10.0,68,0.00,,,0.00,Weather View 32 v70,2013-10-28 22:50:00,
2013-10-28 18:55:00,48.0,38.3,30.30,NE,45,5.0,10.0,69,0.00,,,0.00,Weather View 32 v70,2013-10-28 22:55:00,
2013-10-28 19:00:00,47.0,37.0,30.30,ENE,67,1.0,10.0,68,0.00,,,0.00,Weather View 32 v70,2013-10-28 23:00:00,
2013-10-28 19:05:00,47.0,37.7,30.30,NE,45,0.0,10.0,70,0.00,,,0.00,Weather View 32 v70,2013-10-28 23:05:00,
2013-10-28 19:10:00,47.0,37.3,30.31,NNE,22,5.0,12.0,69,0.00,,,0.00,Weather View 32 v70,2013-10-28 23:10:00,
2013-10-28 19:15:00,46.0,36.8,30.31,NE,45,0.0,12.0,70,0.00,,,0.00,Weather View 32 v70,2013-10-28 23:15:00,
2013-10-28 19:20:00,46.0,37.1,30.31,NE,45,0.0,12.0,71,0.00,,,0.00,Weather View 32 v70,2013-10-28 23:20:00,
2013-10-28 19:25:00,46.0,36.4,30.31,ENE,67,0.0,12.0,69,0.00,,,0.00,Weather View 32 v70,2013-10-28 23:25:00,
2013-10-28 19:30:00,46.0,36.4,30.31,NE,45,1.0,12.0,69,0.00,,,0.00,Weather View 32 v70,2013-10-28 23:30:00,
2013-10-28 19:35:00,45.0,34.7,30.31,NNE,22,2.0,12.0,67,0.00,,,0.00,Weather View 32 v70,2013-10-28 23:35:00,
2013-10-28 19:40:00,45.0,34.3,30.31,NE,45,0.0,12.0,66,0.00,,,0.00,Weather View 32 v70,2013-10-28 23:40:00,
2013-10-28 19:45:00,45.0,34.3,30.32,East,90,1.0,12.0,66,0.00,,,0.00,Weather View 32 v70,2013-10-28 23:45:00,
2013-10-28 19:50:00,45.0,34.3,30.32,North,360,0.0,12.0,66,0.00,,,0.00,Weather View 32 v70,2013-10-28 23:50:00,
2013-10-28 19:55:00,45.0,33.5,30.32,NE,45,0.0,12.0,64,0.00,,,0.00,Weather View 32 v70,2013-10-28 23:55:00,
2013-10-28 20:00:00,44.0,33.0,30.32,NE,45,0.0,12.0,65,0.00,,,0.00,Weather View 32 v70,2013-10-29 00:00:00,
2013-10-28 20:05:00,44.0,32.6,30.32,ENE,67,0.0,12.0,64,0.00,,,0.00,Weather View 32 v70,2013-10-29 00:05:00,
2013-10-28 20:10:00,44.0,31.8,30.32,ENE,67,1.0,9.0,62,0.00,,,0.00,Weather View 32 v70,2013-10-29 00:10:00,
2013-10-28 20:15:00,44.0,32.6,30.32,ENE,67,1.0,9.0,64,0.00,,,0.00,Weather View 32 v70,2013-10-29 00:15:00,
2013-10-28 20:20:00,44.0,32.6,30.33,ENE,67,0.0,9.0,64,0.00,,,0.00,Weather View 32 v70,2013-10-29 00:20:00,
2013-10-28 20:26:00,43.0,32.4,30.33,ENE,67,0.0,9.0,66,0.00,,,0.00,Weather View 32 v70,2013-10-29 00:26:00,
2013-10-28 20:31:00,43.0,32.0,30.33,ENE,67,0.0,9.0,65,0.00,,,0.00,Weather View 32 v70,2013-10-29 00:31:00,
2013-10-28 20:36:00,43.0,32.8,30.33,ENE,67,0.0,9.0,67,0.00,,,0.00,Weather View 32 v70,2013-10-29 00:36:00,
2013-10-28 20:41:00,42.0,31.8,30.33,ENE,67,0.0,9.0,67,0.03,,,0.00,Weather View 32 v70,2013-10-29 00:41:00,
2013-10-28 20:46:00,42.0,33.3,30.33,ENE,67,0.0,9.0,71,0.03,,,0.00,Weather View 32 v70,2013-10-29 00:46:00,
2013-10-28 20:51:00,42.0,32.6,30.33,NE,45,0.0,9.0,69,0.00,,,0.00,Weather View 32 v70,2013-10-29 00:51:00,
2013-10-28 20:56:00,41.0,32.7,30.33,NE,45,1.0,9.0,72,0.00,,,0.00,Weather View 32 v70,2013-10-29 00:56:00,
2013-10-28 21:01:00,41.0,31.6,30.34,North,360,1.0,9.0,69,0.00,,,0.00,Weather View 32 v70,2013-10-29 01:01:00,
2013-10-28 21:06:00,41.0,31.6,30.34,NNW,337,0.0,5.0,69,0.00,,,0.00,Weather View 32 v70,2013-10-29 01:06:00,
2013-10-28 21:11:00,41.0,31.6,30.33,NNE,22,0.0,5.0,69,0.00,,,0.00,Weather View 32 v70,2013-10-29 01:11:00,
2013-10-28 21:16:00,41.0,31.2,30.34,NE,45,2.0,5.0,68,0.00,,,0.00,Weather View 32 v70,2013-10-29 01:16:00,
2013-10-28 21:21:00,41.0,30.9,30.35,WNW,292,2.0,5.0,67,0.00,,,0.00,Weather View 32 v70,2013-10-29 01:21:00,
2013-10-28 21:26:00,41.0,30.5,30.35,West,270,0.0,5.0,66,0.00,,,0.00,Weather View 32 v70,2013-10-29 01:26:00,
2013-10-28 21:31:00,41.0,30.5,30.35,ENE,67,2.0,5.0,66,0.00,,,0.00,Weather View 32 v70,2013-10-29 01:31:00,
2013-10-28 21:36:00,41.0,30.5,30.35,ENE,67,0.0,5.0,66,0.00,,,0.00,Weather View 32 v70,2013-10-29 01:36:00,
2013-10-28 21:41:00,40.0,30.3,30.35,ENE,67,2.0,5.0,68,0.00,,,0.00,Weather View 32 v70,2013-10-29 01:41:00,
2013-10-28 21:46:00,40.0,30.3,30.35,ENE,67,0.0,5.0,68,0.00,,,0.00,Weather View 32 v70,2013-10-29 01:46:00,
2013-10-28 21:51:00,39.0,29.3,30.35,NNE,22,0.0,5.0,68,0.00,,,0.00,Weather View 32 v70,2013-10-29 01:51:00,
2013-10-28 21:56:00,40.0,30.3,30.35,NNE,22,0.0,5.0,68,0.00,,,0.00,Weather View 32 v70,2013-10-29 01:56:00,
2013-10-28 22:01:00,39.0,29.3,30.36,NNE,22,0.0,5.0,68,0.00,,,0.00,Weather View 32 v70,2013-10-29 02:01:00,
2013-10-28 22:06:00,39.0,29.3,30.35,NNE,22,0.0,5.0,68,0.00,,,0.00,Weather View 32 v70,2013-10-29 02:06:00,
2013-10-28 22:11:00,39.0,29.7,30.35,NNE,22,0.0,5.0,69,0.00,,,0.00,Weather View 32 v70,2013-10-29 02:11:00,
2013-10-28 22:16:00,39.0,30.0,30.35,NNE,22,0.0,5.0,70,0.00,,,0.00,Weather View 32 v70,2013-10-29 02:16:00,
2013-10-28 22:21:00,38.0,30.8,30.35,NNE,22,0.0,5.0,75,0.00,,,0.00,Weather View 32 v70,2013-10-29 02:21:00,
2013-10-28 22:26:00,37.0,31.4,30.36,NNE,22,0.0,5.0,80,0.00,,,0.00,Weather View 32 v70,2013-10-29 02:26:00,
2013-10-28 22:31:00,37.0,31.7,30.35,North,360,0.0,3.0,81,0.00,,,0.00,Weather View 32 v70,2013-10-29 02:31:00,
2013-10-28 22:36:00,37.0,31.7,30.36,North,360,0.0,3.0,81,0.00,,,0.00,Weather View 32 v70,2013-10-29 02:36:00,
2013-10-28 22:41:00,36.0,30.7,30.35,North,360,0.0,3.0,81,0.00,,,0.00,Weather View 32 v70,2013-10-29 02:41:00,
2013-10-28 22:46:00,36.0,31.3,30.36,North,360,0.0,3.0,83,0.00,,,0.00,Weather View 32 v70,2013-10-29 02:46:00,
2013-10-28 22:51:00,36.0,31.3,30.36,North,360,0.0,2.0,83,0.00,,,0.00,Weather View 32 v70,2013-10-29 02:51:00,
2013-10-28 22:56:00,35.0,30.4,30.35,North,360,0.0,2.0,83,0.00,,,0.00,Weather View 32 v70,2013-10-29 02:56:00,
2013-10-28 23:01:00,35.0,30.4,30.36,North,360,0.0,2.0,83,0.00,,,0.00,Weather View 32 v70,2013-10-29 03:01:00,
2013-10-28 23:06:00,35.0,30.7,30.36,North,360,0.0,2.0,84,0.00,,,0.00,Weather View 32 v70,2013-10-29 03:06:00,
2013-10-28 23:12:00,35.0,30.7,30.36,North,360,0.0,2.0,84,0.00,,,0.00,Weather View 32 v70,2013-10-29 03:12:00,
2013-10-28 23:17:00,34.0,29.7,30.36,North,360,0.0,2.0,84,0.00,,,0.00,Weather View 32 v70,2013-10-29 03:17:00,
2013-10-28 23:22:00,34.0,30.0,30.36,North,360,0.0,2.0,85,0.00,,,0.00,Weather View 32 v70,2013-10-29 03:22:00,
2013-10-28 23:27:00,34.0,27.2,30.36,North,360,0.0,1.0,76,0.00,,,0.00,Weather View 32 v70,2013-10-29 03:27:00,
2013-10-28 23:32:00,33.0,26.3,30.35,North,360,0.0,1.0,76,0.00,,,0.00,Weather View 32 v70,2013-10-29 03:32:00,
2013-10-28 23:37:00,33.0,26.9,30.35,North,360,0.0,1.0,78,0.00,,,0.00,Weather View 32 v70,2013-10-29 03:37:00,
2013-10-28 23:42:00,33.0,26.6,30.35,North,360,0.0,1.0,77,0.00,,,0.00,Weather View 32 v70,2013-10-29 03:42:00,
2013-10-28 23:47:00,33.0,26.6,30.35,North,360,0.0,1.0,77,0.00,,,0.00,Weather View 32 v70,2013-10-29 03:47:00,
2013-10-28 23:52:00,32.0,25.6,30.35,North,360,0.0,1.0,77,0.00,,,0.00,Weather View 32 v70,2013-10-29 03:52:00,
2013-10-28 23:57:00,32.0,25.6,30.36,North,360,0.0,1.0,77,0.00,,,0.00,Weather View 32 v70,2013-10-29 03:57:00,